Simultaneous Nadir Overpasses (SNOs) Predictions

Prediction of SNOs between AQUA and NOAA-19 Satellite Orbit:

Table of predicted SNOs for the next 14.0 days since TLE Epoch: 6/15/2018
Index Date (AQUA) Time (AQUA) Lat,Lon (AQUA) SZA (AQUA ) Date (NOAA-19) Time (NOAA-19) Lat,Lon (NOAA-19) SZA (NOAA-19 ) Distance(km) Time Diff (sec)
1 06/16/2018 21:50:54 -80.78, -5.77 120.51 06/16/2018 21:50:44 -80.79, -5.91 120.48 2.82 10
2 06/19/2018 03:24:37 80.78, 90.84 59.45 06/19/2018 03:24:15 80.79, 90.70 59.49 2.90 22
3 06/19/2018 04:14:01 -80.70,-100.65 120.70 06/19/2018 04:15:15 -80.83,-100.25 120.67 16.04 74
4 06/21/2018 08:58:21 -80.80,-172.85 120.51 06/21/2018 08:57:55 -80.79,-172.84 120.51 1.42 26
5 06/21/2018 09:47:47 80.79, -5.11 59.47 06/21/2018 09:48:50 80.80, -5.01 59.44 2.09 63
6 06/23/2018 14:32:03 80.78, -76.04 59.48 06/23/2018 14:31:26 80.79, -76.03 59.50 1.22 37
7 06/23/2018 15:21:31 -80.81, 91.22 120.46 06/23/2018 15:22:30 -80.79, 91.27 120.50 2.33 59
8 06/25/2018 20:05:47 -80.80, 20.31 120.42 06/25/2018 20:05:05 -80.78, 20.44 120.43 2.69 42
9 06/25/2018 20:55:13 80.79,-172.03 59.58 06/25/2018 20:56:02 80.79,-172.15 59.57 2.32 49
10 06/28/2018 01:39:29 80.79, 117.01 59.66 06/28/2018 01:38:37 80.78, 117.15 59.66 2.62 52




NCC Satellite Simultaneous Nadir Overpasses (SNOs) Prediction Service
